{"data":{"norad_id":56332,"intl_designator":"2023-058R","name":"STARLINK-5093","alt_names":[],"object_type":"PAYLOAD","status":"ACTIVE","operator":null,"country":"US","launch_date":"2023-04-27","launch_site_code":"AFWTR","launch_vehicle":null,"mission":null,"orbit_class":"UNKNOWN","rcs_meters":null,"size_class":null,"mass_kg":null,"dimensions":null,"purposes":["comms"],"wikipedia_slug":null,"has_3d_model":false,"image_url":null,"decayed_at":null,"tle_current":{"epoch":"2026-09-20T22:00:03.000096Z","epoch_age_seconds":72805,"freshness":"FRESH","line1":"1 56332U 23058R   26263.91670139  .00081237  00000+0  34350-2 0  9999","line2":"2 56332  97.2849 257.8091 0001341  61.4613 127.7010 15.22881092  5531","mean_motion":15.22881092,"eccentricity":0.0001341,"inclination_deg":97.2849,"raan_deg":257.8091,"arg_perigee_deg":61.4613,"mean_anomaly_deg":127.701,"bstar":0.003435,"rev_number":553,"period_min":94.557612381204,"perigee_km":496.2335064076,"apogee_km":498.07745985158,"semimajor_km":6875.2924831296,"source":"CELESTRAK","updated_at":"2026-09-21T09:00:33.403406Z"}}}